Lapse_Rate
6.2 6.3 6.5 7.4 7.8 8.0 7.9 8.0 8.0 8.4 8.9 8.9 9.3 9.5 9.5 9.5 9.4 9.3 9.4 5.4 3.8 3.3 4.2 5.3 5.9 6.1 6.0 6.1 6.0 5.8 6.0 5.5 5.5 5.6 5.7 5.2 5.4 5.8 5.8 5.2 5.7 4.8 4.9
6.0 6.6 6.0 6.7 7.1 7.4 6.9 6.9 6.6 6.4 7.0 8.1 8.6 8.5 9.3 8.9 9.2 9.3 9.3 8.8 4.1 3.5 3.7 4.3 5.3 5.9 6.1 6.2 6.3 5.6 5.6 5.6 5.5 5.5 5.6 5.2 5.5 6.1 6.5 5.6 5.7 5.7 4.9
2.0 6.1 6.6 6.2 6.4 7.0 6.4 6.0 6.8 6.5 6.8 6.7 6.4 6.6 7.7 7.3 8.3 9.0 9.1 9.4 8.6 3.8 3.6 3.4 4.2 4.8 5.8 6.2 6.6 6.0 5.5 5.5 5.5 5.6 5.8 5.6 5.4 5.8 6.4 6.5 6.2 6.2 5.3
2.2 2.5 3.6 5.5 5.9 6.1 5.9 4.6 6.4 6.4 5.9 5.6 6.5 6.3 7.5 7.5 7.3 8.4 8.9 9.0 9.4 8.9 4.2 4.0 3.6 4.5 5.5 5.8 6.0 6.4 6.0 5.4 5.3 5.5 5.7 5.6 5.4 5.1 5.5 6.2 6.0 6.2 6.6
2.6 3.6 5.1 3.1 3.4 5.4 6.9 7.5 6.9 7.1 5.9 4.1 5.1 5.6 5.8 6.6 7.5 8.1 8.8 9.5 9.2 8.5 7.9 5.8 3.6 4.0 4.7 5.0 5.2 5.7 6.0 6.0 5.7 5.4 5.7 5.4 5.1 5.2 5.6 5.6 6.0 6.4 5.5
2.4 3.3 5.0 4.4 4.5 4.1 5.3 7.5 8.7 8.5 7.7 6.5 6.0 5.0 3.9 5.1 7.6 7.0 9.0 9.5 9.4 9.1 8.8 7.9 5.6 5.5 3.2 4.0 4.7 5.3 6.0 6.1 5.8 5.5 5.8 5.6 5.2 5.1 5.2 5.5 5.9 6.1 5.9
2.3 3.0 3.9 3.8 4.1 5.3 4.7 4.6 4.2 5.9 8.5 9.0 6.6 5.2 3.5 4.9 6.9 7.5 8.3 9.5 9.2 9.4 7.4 8.2 7.5 9.0 6.8 3.5 4.0 4.6 5.6 6.2 6.0 5.8 5.6 5.9 5.2 5.0 4.9 5.4 5.9 5.6 5.6
2.0 2.7 2.8 3.5 3.6 3.9 4.6 5.7 5.9 4.6 5.4 6.2 6.9 7.8 7.2 7.5 8.6 7.8 7.9 7.4 7.8 7.9 7.3 7.5 8.6 8.4 7.7 8.8 6.2 3.2 4.7 5.7 6.0 6.0 5.6 5.6 5.1 4.7 4.4 4.8 5.3 5.4 5.4
2.4 2.1 2.5 3.1 3.1 3.4 4.3 4.6 5.3 5.9 6.2 5.1 5.9 6.8 7.3 7.5 8.5 8.3 6.8 6.4 6.2 6.9 7.6 6.1 7.8 8.0 7.9 8.4 7.3 6.1 3.8 4.0 5.2 5.7 5.8 5.6 5.1 4.9 4.4 4.8 5.1 4.9 5.1
2.3 2.4 2.4 1.8 1.6 2.6 2.8 5.3 7.1 6.3 4.3 3.8 5.1 5.2 6.6 8.4 7.6 7.4 6.7 6.6 7.2 7.1 6.7 6.3 6.6 7.3 7.3 7.4 6.8 6.6 5.2 3.2 3.1 4.6 5.4 5.6 5.4 5.1 4.5 4.5 4.8 5.0 5.0
4.6 3.7 2.6 1.7 2.1 1.9 2.2 1.9 3.3 4.9 7.8 8.3 8.6 7.5 4.9 7.4 8.5 7.7 7.3 7.7 6.2 6.0 8.7 6.3 7.4 6.3 6.4 7.5 8.6 6.4 4.1 1.8 1.8 2.8 4.2 5.1 5.3 5.2 5.1 4.7 4.8 5.0 5.1
7.1 6.6 4.3 3.3 2.5 2.2 1.7 2.6 3.5 3.7 3.0 3.6 5.0 8.8 7.4 5.3 6.9 8.0 7.7 8.4 7.9 7.8 6.7 6.5 7.0 7.0 8.2 9.1 9.0 7.3 3.2 1.5 0.9 1.5 2.5 3.7 4.3 4.9 5.2 5.0 4.9 4.9 5.1
7.8 7.5 5.8 5.9 4.7 4.4 4.4 4.0 4.2 5.5 5.0 4.4 3.5 4.4 8.8 9.0 5.5 4.3 6.8 8.6 8.5 9.1 9.1 8.7 5.8 6.5 7.8 9.2 9.4 6.8 2.5 0.3 -0.3 0.3 1.6 2.4 3.3 4.1 4.5 4.9 5.2 5.4 5.3
8.4 7.9 8.0 7.7 7.2 7.2 6.8 6.4 6.5 6.3 5.6 6.0 5.2 4.0 5.0 6.5 9.1 7.1 4.3 6.2 8.2 8.8 9.0 8.8 9.0 9.3 8.8 7.4 9.0 5.4 6.4 -0.7 -1.7 -1.1 -0.6 1.1 1.9 2.5 3.1 3.5 4.0 4.5 5.0
7.7 8.1 8.0 7.9 7.8 6.8 6.3 6.2 6.5 6.3 6.1 6.1 6.4 6.4 6.5 6.9 6.9 9.1 8.5 5.0 7.3 8.0 8.3 9.2 9.4 9.5 9.1 8.4 6.6 7.0 6.2 2.4 -2.2 -2.4 -2.0 -1.4 -0.1 0.8 1.5 1.7 2.7 3.3 3.7
7.0 7.0 6.9 7.6 8.2 8.3 8.1 7.4 6.4 6.1 6.0 5.7 5.7 5.8 6.7 6.9 6.8 6.2 8.6 9.2 7.9 7.9 8.5 9.1 9.7 9.6 9.6 9.7 7.3 6.3 6.4 3.2 -2.7 -3.3 -2.7 -2.9 -2.0 -0.7 -0.1 0.1 0.6 1.3 2.3
7.4 7.9 8.7 8.8 9.0 9.0 8.7 8.1 6.8 6.0 6.5 7.1 7.1 6.9 5.8 6.5 6.7 7.0 6.8 8.6 9.5 9.2 8.6 8.8 9.8 9.1 9.0 9.4 9.5 9.1 7.2 6.4 5.0 -3.5 -3.6 -3.4 -3.1 -2.3 -1.4 -1.1 -0.6 0.2 1.5
8.3 8.4 8.4 8.6 8.9 9.0 9.1 8.9 8.5 7.6 7.5 7.1 6.6 6.3 5.9 5.9 5.3 6.6 7.0 6.9 8.7 9.4 9.2 8.8 9.1 9.4 9.0 9.1 9.1 9.2 9.1 8.6 7.7 -0.1 -4.0 -3.8 -4.0 -3.8 -3.0 -2.0 -1.1 -0.4 0.9
8.4 8.6 8.9 9.0 8.6 8.9 8.8 8.1 7.8 6.7 6.6 6.9 6.7 6.8 6.2 5.7 6.3 6.1 6.2 6.8 7.1 9.0 9.6 8.5 8.9 9.3 9.1 9.3 8.1 8.2 8.7 7.8 6.9 2.9 -3.6 -4.3 -4.2 -4.2 -3.9 -3.2 -2.1 -1.2 -0.0
6.0 7.1 8.3 8.7 8.4 8.4 8.3 8.2 8.4 7.8 6.4 5.9 5.9 4.9 5.8 6.3 6.2 6.9 6.1 6.7 7.2 7.0 8.8 9.1 8.9 8.7 8.9 8.9 8.2 8.2 6.8 5.5 5.8 3.2 -0.7 -1.6 -3.2 -4.0 -3.8 -3.2 -2.3 -1.5 -0.8
5.9 5.5 5.5 6.4 7.3 7.2 6.6 6.2 8.3 8.7 7.8 5.9 5.2 4.7 4.4 4.1 4.7 3.6 4.8 5.2 5.7 6.3 7.5 8.6 9.2 8.3 8.3 8.3 7.5 6.2 6.9 6.6 5.5 2.1 0.7 -1.3 -1.6 -2.1 -2.1 -2.9 -1.0 -1.8 -1.5
5.7 4.5 4.3 4.8 5.2 5.7 4.5 4.1 4.9 7.1 7.1 6.4 5.5 5.0 4.2 3.1 4.0 3.1 2.2 0.6 -0.5 1.3 3.5 6.2 7.9 8.6 8.6 8.6 7.2 6.7 5.9 5.6 4.4 0.0 0.8 0.1 -1.6 -1.2 -1.9 -0.9 -1.7 -2.3 -2.5
4.9 4.3 3.0 3.0 3.4 4.2 4.0 3.1 3.0 4.2 4.3 5.2 6.0 5.3 4.6 3.7 3.1 3.5 3.0 1.0 -0.4 -1.1 -1.6 -0.5 3.0 -1.3 0.3 -2.4 -0.8 1.3 5.4 7.5 6.6 5.2 2.5 0.8 -3.9 -3.0 -4.0 -4.4 -5.0 -4.7 -4.0
5.3 4.4 3.3 3.2 3.1 3.7 3.2 2.9 2.7 2.8 2.5 2.4 4.0 4.7 4.0 3.4 2.9 2.0 2.1 1.1 0.5 0.1 -0.9 -1.4 -1.8 -2.0 -2.2 -3.7 -2.0 -0.9 -0.9 0.7 0.3 -1.7 -0.6 0.7 -4.7 -4.0 -5.5 -5.1 -4.8 -4.6 -4.6
5.5 4.9 4.2 3.6 3.4 3.3 3.5 2.5 2.0 1.8 2.1 2.2 1.6 2.3 2.7 2.8 2.7 1.7 0.7 1.3 1.6 1.7 2.1 2.3 1.8 1.3 0.5 -1.2 -4.1 -2.6 -2.8 0.7 0.1 -2.4 -5.0 -2.6 -4.3 -4.8 -5.4 -6.3 -5.8 -5.3 -5.4
6.3 6.9 5.3 4.3 3.8 3.6 3.6 3.1 2.0 2.1 1.5 2.1 1.8 1.5 2.5 2.3 1.8 1.4 0.4 0.8 1.2 2.0 1.4 1.2 0.8 1.2 0.7 -0.0 -1.7 -3.1 -3.6 -1.0 0.4 1.2 -3.0 -1.0 -2.7 -3.3 -2.3 -5.1 -4.8 -5.2 -5.9
Wind_Speed
7 7 5 10 11 13 13 10 11 10 12 14 15 15 13 15 15 13 12 12 15 15 15 16 16 16 16 19 21 21 21 22 24 23 24 25 26 27 28 26 28 24 24
5 6 7 10 10 14 14 11 8 9 10 10 12 13 14 16 17 16 15 14 17 19 18 17 18 19 19 20 22 22 22 22 24 24 25 27 27 28 30 29 27 29 25
11 9 9 8 9 13 14 10 9 9 9 8 9 8 11 15 17 18 17 17 14 20 21 19 19 19 20 20 21 22 24 23 23 25 25 27 28 28 29 31 31 32 30
13 9 7 7 8 9 6 5 9 9 9 6 8 6 10 9 14 18 19 18 16 15 17 22 22 19 18 16 15 20 22 23 24 24 25 26 27 27 29 30 32 33 32
13 10 6 6 12 6 7 9 9 10 7 7 9 9 8 12 12 12 16 17 20 17 16 20 24 25 23 20 17 18 21 23 25 26 26 26 27 27 27 26 29 33 33
13 10 6 6 7 5 7 9 13 10 9 8 8 8 8 11 14 13 15 13 18 20 19 16 13 18 25 23 20 19 21 23 24 26 29 27 27 27 28 27 29 31 32
12 10 7 8 7 7 7 8 8 11 12 13 8 7 12 11 19 13 11 12 14 15 17 17 15 16 16 25 25 23 22 24 24 26 29 29 28 28 29 28 27 31 35
14 11 9 8 8 7 9 9 8 5 6 7 6 9 8 12 12 13 11 14 15 12 13 14 17 17 16 16 18 24 23 23 25 26 27 27 28 28 27 26 27 31 33
13 12 11 8 9 8 8 10 9 9 7 5 9 8 7 10 13 9 14 11 15 12 13 12 14 18 17 18 17 20 26 28 25 25 26 26 26 26 26 28 29 31 32
13 14 13 11 11 9 9 10 9 9 7 9 6 8 14 15 9 9 5 10 12 11 13 11 13 14 17 16 19 21 21 29 28 26 26 27 26 24 25 27 28 29 31
12 12 12 13 11 9 10 11 13 12 10 10 10 8 8 12 15 13 8 8 9 8 14 11 12 12 16 22 19 22 28 27 29 28 27 27 27 26 27 28 28 29 30
9 10 13 13 11 10 11 11 13 14 12 11 11 11 10 5 7 13 13 13 13 13 13 12 12 12 13 15 22 24 26 30 28 28 28 29 29 28 26 27 28 29 30
10 12 14 12 11 11 12 12 13 14 13 12 13 11 13 12 9 10 12 14 14 13 13 13 11 12 13 15 20 26 23 27 29 27 28 28 28 28 27 27 27 27 28
10 12 13 13 12 13 12 12 10 10 13 12 15 14 11 13 13 10 10 9 13 15 14 16 10 13 14 12 17 24 22 26 25 28 27 28 29 29 28 27 27 27 28
11 14 13 14 14 13 13 13 9 11 12 12 12 13 12 11 11 13 11 11 13 14 15 16 13 16 11 13 14 19 17 20 27 28 27 26 27 28 28 27 28 28 28
13 14 14 14 14 14 14 13 11 11 13 10 10 13 13 11 11 11 14 13 14 14 16 15 13 15 14 12 11 16 18 19 25 26 26 27 26 27 27 27 26 27 27
13 14 14 14 15 15 15 13 14 15 15 14 13 13 14 13 11 11 11 15 14 15 16 14 14 13 14 15 14 13 15 14 13 24 26 27 27 26 27 26 26 25 26
12 13 13 14 15 15 16 15 15 14 14 15 16 16 17 11 15 13 12 16 17 17 15 19 15 14 17 11 13 15 13 14 14 17 24 25 25 25 25 25 26 26 25
13 13 13 14 15 16 16 16 14 14 15 14 13 15 16 17 16 12 13 12 13 15 15 14 15 12 13 12 10 12 12 13 11 9 19 21 23 23 24 25 26 26 26
13 14 15 15 16 17 17 16 14 15 16 15 14 15 9 12 14 14 13 13 13 12 15 15 13 13 12 13 10 11 9 6 8 6 6 10 15 17 20 23 25 25 26
12 14 15 16 18 17 14 19 16 17 18 17 15 15 13 15 9 11 6 11 12 9 12 14 15 11 12 12 10 6 10 8 9 5 4 3 3 5 8 17 20 22 24
13 14 16 17 19 15 29 28 22 16 19 18 17 15 13 19 11 14 15 19 16 5 8 9 10 15 17 13 11 10 8 9 5 3 5 5 4 6 4 7 13 16 20
12 14 15 16 17 19 31 29 25 14 16 17 18 16 15 13 17 12 14 18 20 22 16 6 5 7 7 6 8 4 11 17 10 5 8 5 3 4 3 2 3 5 9
12 13 15 16 16 16 30 29 24 15 14 16 18 21 18 19 19 14 12 14 15 14 16 10 11 8 8 8 5 5 2 12 2 4 1 4 3 2 3 3 3 3 4
11 13 14 16 17 16 30 30 21 14 15 16 16 19 21 20 30 27 16 15 15 15 15 20 19 19 18 24 21 7 5 6 1 4 7 2 1 2 1 2 2 7 7
11 9 13 15 19 16 28 29 22 10 14 12 15 17 30 26 32 32 18 16 15 13 13 13 13 15 17 17 25 15 10 5 4 1 7 5 2 2 0 1 2 0 1
Wind_Direction
243 221 223 225 220 228 221 221 214 222 225 227 233 241 243 240 246 247 246 207 223 227 234 242 243 233 224 222 217 217 216 208 209 208 206 199 204 201 196 191 186 184 184
258 241 216 221 223 220 226 230 226 226 226 240 238 239 251 253 247 246 245 233 219 228 230 233 240 241 234 224 220 218 218 214 210 210 209 203 207 212 209 195 198 186 189
5 297 260 254 242 233 231 226 232 228 232 235 232 249 243 252 255 249 245 249 231 224 228 226 230 239 233 223 224 222 219 216 213 214 215 210 209 212 216 205 202 197 190
6 340 332 322 299 270 268 209 235 219 211 209 248 233 253 249 247 249 247 245 243 242 214 225 225 225 225 219 222 229 223 216 215 218 217 212 210 210 215 214 204 202 202
3 346 338 345 345 313 250 245 239 238 223 201 212 231 237 247 247 247 248 242 237 239 231 218 215 217 217 222 228 235 223 220 218 217 219 214 212 213 215 213 209 202 198
357 345 333 336 328 315 306 281 258 237 243 239 225 223 229 241 240 232 239 236 240 229 233 233 203 226 217 217 229 231 230 221 219 218 221 215 213 212 213 213 209 203 199
354 346 341 331 327 310 300 302 316 297 257 246 254 251 248 254 232 233 240 236 228 234 218 226 220 229 210 217 220 224 230 226 220 222 225 218 214 214 215 209 209 204 203
348 344 339 328 327 312 303 298 288 304 285 271 241 244 255 248 243 243 231 234 226 218 214 214 228 229 232 224 221 220 221 225 222 221 221 221 215 214 214 211 210 206 205
341 338 333 327 322 315 312 308 295 283 279 293 281 251 242 246 256 216 228 230 219 210 211 187 221 226 226 235 233 224 218 218 218 218 221 222 217 214 210 209 209 206 207
333 333 331 336 329 320 310 302 297 292 276 274 293 259 259 267 272 246 234 221 226 217 210 197 210 226 220 229 230 237 221 220 216 215 218 221 219 215 206 205 206 208 212
327 329 335 325 321 315 311 305 296 295 291 281 271 271 286 267 252 252 251 211 221 225 235 220 218 220 223 224 228 235 226 219 213 212 214 216 219 215 210 207 211 213 217
328 333 333 321 317 311 309 300 292 285 280 275 279 270 255 265 261 246 245 242 226 222 229 246 244 236 245 243 232 230 210 215 215 212 210 212 215 217 213 211 211 215 218
333 330 327 320 317 311 302 295 290 284 279 275 270 270 274 261 251 274 283 248 251 243 241 237 239 251 242 234 230 216 217 211 211 216 212 209 209 211 211 212 215 219 220
329 326 324 317 316 309 303 298 291 286 282 278 272 264 265 267 270 259 260 284 255 252 250 250 237 242 239 228 224 199 221 206 209 214 219 210 207 206 207 210 215 220 226
331 333 327 326 321 315 311 304 293 288 284 279 277 274 266 263 264 267 260 251 265 250 251 242 240 236 238 229 217 215 222 218 206 213 213 218 211 208 208 211 213 217 223
339 336 335 332 329 325 320 314 304 294 287 281 277 271 265 261 258 259 261 260 261 255 258 251 247 236 232 231 225 220 226 213 201 207 207 213 215 211 208 209 213 215 219
349 345 341 338 339 335 332 325 318 305 297 292 281 272 270 270 265 260 258 261 258 254 253 253 258 266 231 232 235 230 232 229 223 203 205 209 210 212 213 208 212 216 220
356 354 352 351 346 345 342 334 327 320 312 299 287 277 271 268 266 259 256 259 260 257 254 256 248 253 253 245 237 235 227 231 229 205 205 205 207 205 211 212 212 211 213
5 5 5 2 356 356 352 351 350 347 338 324 313 296 266 268 267 256 258 260 256 263 255 253 257 246 254 242 234 239 233 225 230 214 199 204 208 204 207 211 210 205 206
9 10 12 10 9 10 6 0 3 3 357 349 343 341 291 263 265 267 264 265 256 253 268 252 257 252 244 246 248 232 225 217 210 217 202 206 202 207 209 210 211 203 199
16 15 18 16 15 17 13 11 10 13 9 2 357 360 360 353 15 16 281 271 276 267 251 259 248 258 249 244 229 225 233 213 219 185 184 182 178 199 215 215 220 206 199
18 19 20 21 19 18 13 14 14 15 14 10 8 1 5 11 8 25 43 51 43 326 291 277 283 252 257 243 237 217 224 217 227 189 183 205 189 204 197 214 213 204 204
19 23 22 19 21 17 17 14 13 18 16 11 12 8 14 17 19 20 32 42 43 39 40 9 347 9 339 350 326 307 276 230 221 182 200 210 169 179 127 125 166 184 198
22 25 27 22 23 17 18 17 14 16 21 18 13 18 19 20 22 23 28 39 36 34 32 34 41 29 12 348 338 272 325 309 2 57 5 195 158 139 115 100 143 168 217
27 29 29 25 23 20 22 20 16 16 16 20 18 19 23 21 23 25 34 34 34 28 23 29 38 34 29 28 33 27 26 309 306 13 13 29 54 87 68 101 55 97 86
31 27 32 30 23 21 22 25 25 17 18 14 19 20 23 26 27 28 31 29 29 17 14 16 18 22 20 26 37 42 24 9 353 156 19 348 22 75 193 111 144 47 41